Weather History for Saranac Lake, NY

Change the Weather History Date:

Sunday, July 29, 2012

  Actual Average Record
Temperature  
Mean Temperature 63 °F 63 °F  
Max Temperature 80 °F 75 °F 91 °F (1949)
Min Temperature 46 °F 51 °F 36 °F (1987)
Degree Days  
Heating Degree Days 2 3  
Month to date heating degree days 87  
Since 1 June heating degree days 271  
Since 1 July heating degree days 87  
Cooling Degree Days 0 1  
Month to date cooling degree days 48 44  
Year to date cooling degree days 105 73  
Since 1 June cooling degree days 89 70  
Growing Degree Days 12 (Base 50)    
Moisture  
Dew Point 53 °F    
Average Humidity 71    
Maximum Humidity 100    
Minimum Humidity 41    
Precipitation  
Precipitation 0.00 in 0.14 in 1.41 in (1958)
Month to date precipitation 3.80 3.92  
Year to date precipitation 18.75 20.12  
Sea Level Pressure  
Sea Level Pressure 30.04 in    
Wind  
Wind Speed 3 mph (NNW)    
Max Wind Speed 12 mph    
Max Gust Speed 16 mph    
Visibility 10 miles    
Events      
T = Trace of Precipitation, MM = Missing Value Source: NWS Daily Summary

Daily Weather History Graph

Daily Weather History Graph

Search for Another Location

Airport:

Trip Planner

Search our weather history database for the weather conditions in past years. The results will help you decide how hot, cold, wet, or windy it might be!

Date:

Astronomy

Jul. 29, 2012 Rise Set
Actual Time 5:41 AM EDT 8:24 PM EDT
Civil Twilight 5:07 AM EDT 8:58 PM EDT
Nautical Twilight 4:25 AM EDT 9:40 PM EDT
Astronomical Twilight 3:35 AM EDT 10:29 PM EDT
Moon 5:31 PM EDT (7/29) 1:50 AM EDT (7/29)
Length of Visible Light 15h 50m
Length of Day
14h 43m
Waxing Gibbous, 85% of the Moon is Illuminated
Jul 29
Waxing Gibbous
Aug 1
Full
Aug 9
Last Quarter
Aug 17
New
Aug 24
First Quarter

Hourly Weather History & Observations

Time (EDT) Temp. Dew Point Humidity Pressure Visibility Wind Dir Wind Speed Gust Speed Precip Events Conditions
12:51 AM 51.1 °F 50.0 °F 96% 30.03 in 10.0 mi Calm Calm - N/A   Clear
1:51 AM 50.0 °F 48.9 °F 96% 30.03 in 10.0 mi Calm Calm - N/A   Clear
2:51 AM 48.9 °F 48.0 °F 97% 30.03 in 10.0 mi NE 3.5 mph - N/A   Clear
3:51 AM 48.0 °F 46.9 °F 96% 30.02 in 10.0 mi Calm Calm - N/A   Clear
4:51 AM 48.0 °F 46.0 °F 93% 30.02 in 10.0 mi Calm Calm - N/A   Clear
5:51 AM 46.0 °F 45.0 °F 96% 30.04 in 10.0 mi Calm Calm - N/A   Clear
6:51 AM 51.1 °F 48.9 °F 92% 30.05 in 10.0 mi Calm Calm - N/A   Clear
7:51 AM 55.9 °F 53.1 °F 90% 30.06 in 10.0 mi Calm Calm - N/A   Clear
8:51 AM 64.4 °F 55.4 °F 73% 30.07 in 10.0 mi Calm Calm - N/A   Clear
9:51 AM 71.1 °F 53.1 °F 53% 30.06 in 10.0 mi Calm Calm - N/A   Clear
10:51 AM 73.9 °F 48.9 °F 41% 30.06 in 10.0 mi NW 5.8 mph - N/A   Clear
11:51 AM 75.9 °F 52.0 °F 43% 30.05 in 10.0 mi NE 5.8 mph - N/A   Clear
12:51 PM 78.1 °F 53.1 °F 42% 30.04 in 10.0 mi NW 6.9 mph - N/A   Scattered Clouds
1:51 PM 79.0 °F 53.1 °F 40% 30.03 in 10.0 mi South 5.8 mph - N/A   Partly Cloudy
2:51 PM 78.1 °F 53.1 °F 42% 30.01 in 10.0 mi Variable 4.6 mph - N/A   Scattered Clouds
3:51 PM 79.0 °F 57.0 °F 47% 30.01 in 10.0 mi NNW 8.1 mph - N/A   Mostly Cloudy
4:51 PM 79.0 °F 57.9 °F 48% 30.01 in 10.0 mi North 9.2 mph - N/A   Overcast
5:51 PM 77.0 °F 59.0 °F 54% 30.01 in 10.0 mi North 9.2 mph - N/A   Clear
6:51 PM 77.0 °F 57.9 °F 52% 30.02 in 10.0 mi North 5.8 mph - N/A   Scattered Clouds
7:51 PM 73.0 °F 57.9 °F 59% 30.03 in 10.0 mi Calm Calm - N/A   Scattered Clouds
8:51 PM 64.0 °F 60.1 °F 87% 30.04 in 10.0 mi Calm Calm - N/A   Clear
9:51 PM 61.0 °F 59.0 °F 93% 30.06 in 10.0 mi Calm Calm - N/A   Clear
10:51 PM 61.0 °F 59.0 °F 93% 30.05 in 10.0 mi SW 3.5 mph - N/A   Partly Cloudy
11:51 PM 55.9 °F 55.0 °F 97% 30.06 in 8.0 mi Calm Calm - N/A   Clear